Flag for Germany Weather past 2 weeks in Hofheim am Taunus, Hesse, Germany

Now
48 °F

Broken clouds.


Feels Like: 42 °F
Forecast: 42 / 53 °F
Wind: 15 mph from Northwest

Location: Wiesbaden Airport

Current Time: Mar 30, 2015 at 3:31:46 PM

Latest Report: Mar 30, 2015 at 2:58 PM


Visibility: N/A

Pressure: 29.77 "Hg

Humidity: 58%

Dew point: 34 °F

Location of Hofheim am TaunusLocation

Historic Weather in Hofheim am Taunus — Graph

°F

Hofheim am Taunus temperature yesterday

Maximum temperature yesterday: 54 °F (at 9:58 PM)
Minimum temperature yesterday: 48 °F (at 11:58 PM)
Average temperature yesterday: 52 °F

Past Weeks' High & Low Weather Summary

 TemperatureHumidityPressure
High66 °F (Mar 18, 3:58 PM)100% (Mar 20, 3:58 AM)30.31 "Hg (Mar 20, 3:58 AM)
Low31 °F (Mar 23, 4:58 AM)40% (Mar 18, 3:58 PM)29.39 "Hg (Mar 29, 9:58 PM)
Average47 °F74%30.02 "Hg
* Reported Mar 15 12:58 PM — Mar 30 1:58 PM, Hofheim am Taunus, Weather by CustomWeather, © 2015

Note: Actual official high and low records may vary slightly from our data, if they occured in-between our weather recording intervals... More about our weather records

Advertising

Hofheim am Taunus weather history for previous 24 hours

 ConditionsComfort  
Time TempWeatherWind HumidityBarometerVisibility
1:58 PM
Mon, Mar 30
52 °FPartly sunny.25 mph45%29.72 "HgN/A
12:58 PM48 °FScattered clouds.23 mph58%29.69 "HgN/A
11:58 AM50 °FSunny.21 mph68%29.66 "HgN/A
10:58 AM48 °FLight rain. Mostly cloudy.28 mph62%29.64 "HgN/A
10:03 AM46 °FBroken clouds.18 mph71%29.60 "HgN/A
9:58 AM46 °FScattered clouds.13 mph71%29.61 "HgN/A
8:58 AM46 °FOvercast.15 mph69%29.59 "HgN/A
8:02 AM45 °FPassing clouds.10 mph81%29.56 "HgN/A
7:58 AM44 °FPassing clouds.12 mph82%29.57 "HgN/A
7:03 AM45 °FOvercast.14 mph81%29.52 "HgN/A
6:58 AM45 °FMostly cloudy.13 mph83%29.53 "HgN/A
6:01 AM45 °FMostly cloudy.10 mph87%29.50 "HgN/A
5:58 AM45 °FOvercast.10 mph85%29.50 "HgN/A
5:02 AM45 °FMostly cloudy.14 mph87%29.48 "HgN/A
4:58 AM46 °FLight rain. Mostly cloudy.14 mph84%29.50 "HgN/A
3:58 AM46 °FMostly cloudy.12 mph82%29.49 "HgN/A
2:58 AM46 °FMostly cloudy.13 mph82%29.50 "HgN/A
1:58 AM46 °FMostly cloudy.10 mph87%29.51 "HgN/A
12:58 AM46 °FOvercast.12 mph86%29.50 "HgN/A
11:58 PM
Sun, Mar 29
48 °FLight rain. Mostly cloudy.12 mph85%29.48 "HgN/A
11:04 PM54 °FPassing clouds.18 mph77%29.41 "HgN/A
9:58 PM54 °FLight rain. Mostly cloudy.24 mph84%29.39 "HgN/A
9:01 PM52 °FMostly cloudy.18 mph94%29.41 "HgN/A
7:58 PM52 °FLight rain. Partly sunny.24 mph96%29.45 "HgN/A
7:03 PM52 °FLight rain. Overcast.20 mph94%29.46 "HgN/A
5:58 PM52 °FLight rain. Overcast.18 mph94%29.50 "HgN/A
4:58 PM52 °FOvercast.20 mph90%29.53 "HgN/A
4:04 PM52 °FOvercast.16 mph88%29.56 "HgN/A
3:58 PM52 °FLight rain. Overcast.15 mph89%29.58 "HgN/A
Weather by CustomWeather, © 2015

See weather overviewHow to use our weather pages